| time (UTC) | temp C | wind direction | speed KPH | gust KPH | rain 1hr cm | rain 24hr cm | rain mn cm | humidity % | barometer mb |
| 20260504081548 | 12 | 217 | 0.0 | 14.5 | 0.00 | 0.00 | 0.00 | 65 | 1018.7 |
| 20260504044551 | 13 | 182 | 9.7 | 20.9 | 0.00 | 0.00 | 0.00 | 56 | 1019.6 |
| 20260504043010 | 13 | 204 | 8.0 | 17.7 | 0.00 | 0.00 | 0.00 | 55 | 1019.9 |
| 20260504041538 | 13 | 192 | 9.7 | 17.7 | 0.00 | 0.00 | 0.00 | 55 | 1020.0 |
| 20260504040050 | 13 | 201 | 6.4 | 16.1 | 0.00 | 0.00 | 0.00 | 55 | 1020.2 |
| 20260504034512 | 13 | 207 | 0.0 | 12.9 | 0.00 | 0.00 | 0.00 | 55 | 1020.5 |
| 20260504033038 | 13 | 212 | 3.2 | 14.5 | 0.00 | 0.00 | 0.00 | 54 | 1020.4 |
| 20260504031540 | 13 | 219 | 1.6 | 11.3 | 0.00 | 0.00 | 0.00 | 53 | 1020.5 |
| 20260504030048 | 14 | 219 | 0.0 | 8.0 | 0.00 | 0.00 | 0.00 | 52 | 1020.6 |
| 20260504024502 | 14 | 219 | 0.0 | 8.0 | 0.00 | 0.00 | 0.00 | 51 | 1020.6 |
| 20260504023021 | 15 | 219 | 1.6 | 9.7 | 0.00 | 0.00 | 0.00 | 51 | 1020.6 |
| 20260504021531 | 15 | 219 | 0.0 | 9.7 | 0.00 | 0.00 | 0.00 | 50 | 1020.4 |
| 20260504020048 | 15 | 219 | 1.6 | 11.3 | 0.00 | 0.00 | 0.00 | 49 | 1020.3 |
| 20260504014503 | 15 | 220 | 1.6 | 9.7 | 0.00 | 0.00 | 0.00 | 49 | 1019.9 |
| 20260504013024 | 15 | 221 | 0.0 | 11.3 | 0.00 | 0.00 | 0.00 | 49 | 1019.7 |
| 20260504011531 | 16 | 226 | 0.0 | 0.0 | 0.00 | 0.00 | 0.00 | 47 | 1019.9 |
| 20260504010116 | 16 | 226 | 0.0 | 8.0 | 0.00 | 0.00 | 0.00 | 44 | 1020.1 |
| 20260504004518 | 17 | 226 | 0.0 | 0.0 | 0.00 | 0.00 | 0.00 | 42 | 1020.3 |
| 20260504003024 | 18 | 226 | 1.6 | 11.3 | 0.00 | 0.00 | 0.00 | 40 | 1019.9 |
| 20260504001545 | 18 | 230 | 0.0 | 14.5 | 0.00 | 0.00 | 0.00 | 38 | 1020.1 |
| 20260504000056 | 19 | 244 | 8.0 | 17.7 | 0.00 | 0.00 | 0.00 | 37 | 1020.3 |
| 20260503234502 | 20 | 259 | 8.0 | 16.1 | 0.00 | 0.00 | 0.00 | 36 | 1020.6 |
| 20260503233009 | 20 | 223 | 4.8 | 12.9 | 0.00 | 0.00 | 0.00 | 35 | 1020.8 |
| 20260503231526 | 20 | 253 | 0.0 | 11.3 | 0.00 | 0.00 | 0.00 | 35 | 1020.7 |
| 20260503230034 | 20 | 221 | 4.8 | 16.1 | 0.00 | 0.00 | 0.00 | 34 | 1020.8 |
| 20260503224551 | 20 | 228 | 11.3 | 19.3 | 0.00 | 0.00 | 0.00 | 35 | 1020.9 |
| 20260503223005 | 20 | 237 | 6.4 | 22.5 | 0.00 | 0.00 | 0.00 | 35 | 1021.2 |
| 20260503221508 | 21 | 224 | 6.4 | 19.3 | 0.00 | 0.00 | 0.00 | 33 | 1021.3 |
| 20260503220025 | 21 | 222 | 3.2 | 17.7 | 0.00 | 0.00 | 0.00 | 33 | 1021.5 |
| 20260503214534 | 21 | 265 | 0.0 | 20.9 | 0.00 | 0.00 | 0.00 | 31 | 1021.7 |
| 20260503213039 | 21 | 241 | 0.0 | 6.4 | 0.00 | 0.00 | 0.00 | 32 | 1021.9 |
| 20260503211544 | 21 | 257 | 4.8 | 19.3 | 0.00 | 0.00 | 0.00 | 32 | 1022.3 |
| 20260503204509 | 21 | 188 | 0.0 | 19.3 | 0.00 | 0.00 | 0.00 | 33 | 1022.7 |
| 20260503203018 | 21 | 315 | 0.0 | 19.3 | 0.00 | 0.00 | 0.00 | 32 | 1022.9 |
| 20260503201526 | 20 | 245 | 4.8 | 17.7 | 0.00 | 0.00 | 0.00 | 34 | 1023.2 |
| 20260503200026 | 21 | 248 | 3.2 | 17.7 | 0.00 | 0.00 | 0.00 | 35 | 1023.4 |
| 20260503194529 | 21 | 238 | 1.6 | 19.3 | 0.00 | 0.00 | 0.00 | 32 | 1023.8 |
| 20260503193032 | 21 | 209 | 4.8 | 17.7 | 0.00 | 0.00 | 0.00 | 31 | 1024.0 |
| 20260503191530 | 21 | 200 | 0.0 | 17.7 | 0.00 | 0.00 | 0.00 | 34 | 1024.2 |
| 20260503190058 | 20 | 216 | 4.8 | 16.1 | 0.00 | 0.00 | 0.00 | 35 | 1024.5 |
| 20260503184554 | 20 | 219 | 0.0 | 19.3 | 0.00 | 0.00 | 0.00 | 33 | 1024.7 |
| 20260503183105 | 20 | 209 | 0.0 | 16.1 | 0.00 | 0.00 | 0.00 | 33 | 1024.9 |
| 20260503181507 | 20 | 247 | 0.0 | 19.3 | 0.00 | 0.00 | 0.00 | 32 | 1025.0 |
| 20260503180015 | 20 | 200 | 1.6 | 17.7 | 0.00 | 0.00 | 0.00 | 32 | 1025.2 |
| 20260503174532 | 20 | 186 | 0.0 | 8.0 | 0.00 | 0.00 | 0.00 | 33 | 1025.2 |
| 20260503173133 | 20 | 179 | 6.4 | 16.1 | 0.00 | 0.00 | 0.00 | 33 | 1025.5 |
| 20260503171546 | 18 | 217 | 0.0 | 11.3 | 0.00 | 0.00 | 0.00 | 33 | 1025.8 |